Orbital Elements at Epoch 2459000.5 (2020-May-31.0) TDB
Reference: JPL 15 (heliocentric ecliptic J2000)
Element | Value | Uncertainty (1-sigma) | Units |
e | .2339046394184783 | 5.8975e-08 | |
a | 3.088495306952169 | 3.8217e-08 | au |
q | 2.36608192583386 | 1.6998e-07 | au |
i | 12.72203441385396 | 7.2499e-06 | deg |
node | 16.78892831888236 | 2.4261e-05 | deg |
peri | 216.7547013075151 | 2.7896e-05 | deg |
M | 126.7564083712232 | 1.4201e-05 | deg |
tp | 2458302.450420620495 (2018-Jul-02.95042062) | 7.4964e-05 | TDB |
period | 1982.525789470636 5.43 | 3.6798e-05 1.007e-07 | d yr |
n | .1815865407209282 | 3.3705e-09 | deg/d |
Q | 3.810908688070478 | 4.7157e-08 | au |
|
| | Orbit Determination Parameters
Additional Information
|